Location: Gand�
(15.0971°N, 12.6564°W)
Time: 15:25:17
(UTC+00:00)

S3M - Pass Details

Date: 07 August 2020
Orbit: 948 x 1005 km, 83.0° (Epoch: 19 September)

Event Time Altitude Azimuth Distance (km) Brightness Sun altitude
Exits shadow 04:29:02 34° 161° (SSE) 1,587 5.0 -28.9°
Maximum altitude 04:31:52 64° 92° (E) 1,096 4.3 -28.3°
Drops below altitude 10° 04:38:09 10° 12° (NNE) 2,771 6.8 -26.9°
Sets 04:40:42 0° 10° (N) 3,724 7.5 -26.4°
